Year,Month,Day,Hour,Minute,Value (Times are PST for temperature in C)
2015,07,05,03,28,19.40
2015,07,05,03,29,19.40
2015,07,05,03,30,19.30
2015,07,05,03,31,19.30
2015,07,05,03,32,19.30
2015,07,05,03,33,19.30
2015,07,05,03,34,19.30
2015,07,05,03,35,19.30
2015,07,05,03,36,19.30
2015,07,05,03,37,19.30
2015,07,05,03,38,19.30
2015,07,05,03,39,19.20
2015,07,05,03,40,19.20
2015,07,05,03,41,19.30
2015,07,05,03,42,19.30
2015,07,05,03,43,19.30
2015,07,05,03,44,19.30
2015,07,05,03,45,19.20
2015,07,05,03,46,19.20
2015,07,05,03,47,19.20
2015,07,05,03,48,19.20
2015,07,05,03,49,19.20
2015,07,05,03,50,19.20
2015,07,05,03,51,19.20
2015,07,05,03,52,19.20
2015,07,05,03,53,19.20
2015,07,05,03,54,19.20
2015,07,05,03,55,19.20
2015,07,05,03,56,19.20
2015,07,05,03,57,19.20
2015,07,05,03,58,19.20
2015,07,05,03,59,19.20
2015,07,05,04,00,19.10
2015,07,05,04,01,19.10
2015,07,05,04,02,19.10
2015,07,05,04,03,19.10
2015,07,05,04,04,19.10
2015,07,05,04,05,19.10
2015,07,05,04,06,19.00
2015,07,05,04,07,19.00
2015,07,05,04,08,19.00
2015,07,05,04,09,19.00
2015,07,05,04,10,19.00
2015,07,05,04,11,18.90
2015,07,05,04,12,18.90
2015,07,05,04,13,18.90
2015,07,05,04,14,18.90
2015,07,05,04,15,18.90
2015,07,05,04,16,18.90
2015,07,05,04,17,18.90
2015,07,05,04,18,18.90
2015,07,05,04,19,18.90
2015,07,05,04,20,18.80
2015,07,05,04,21,18.80
2015,07,05,04,22,18.80
2015,07,05,04,23,18.80
2015,07,05,04,24,18.80
2015,07,05,04,25,18.80
2015,07,05,04,26,18.80
2015,07,05,04,27,18.80
2015,07,05,04,28,18.80
2015,07,05,04,29,18.70
2015,07,05,04,30,18.70
2015,07,05,04,31,18.70
2015,07,05,04,32,18.70
2015,07,05,04,33,18.70
2015,07,05,04,34,18.70
2015,07,05,04,35,18.70
2015,07,05,04,36,18.60
2015,07,05,04,37,18.60
2015,07,05,04,38,18.60
2015,07,05,04,39,18.60
2015,07,05,04,40,18.60
2015,07,05,04,41,18.60
2015,07,05,04,42,18.60
2015,07,05,04,43,18.60
2015,07,05,04,44,18.60
2015,07,05,04,45,18.60
2015,07,05,04,46,18.70
2015,07,05,04,47,18.70
2015,07,05,04,48,18.70
2015,07,05,04,49,18.70
2015,07,05,04,50,18.60
2015,07,05,04,51,18.60
2015,07,05,04,52,18.60
2015,07,05,04,53,18.60
2015,07,05,04,54,18.60
2015,07,05,04,55,18.60
2015,07,05,04,56,18.50
2015,07,05,04,57,18.50
2015,07,05,04,58,18.40
2015,07,05,04,59,18.40
2015,07,05,05,00,18.40
2015,07,05,05,01,18.40
2015,07,05,05,02,18.40
2015,07,05,05,03,18.40
2015,07,05,05,04,18.40
2015,07,05,05,05,18.40
2015,07,05,05,06,18.30
2015,07,05,05,07,18.30
2015,07,05,05,08,18.30
2015,07,05,05,09,18.30
2015,07,05,05,10,18.30
2015,07,05,05,11,18.30
2015,07,05,05,12,18.30
2015,07,05,05,13,18.30
2015,07,05,05,14,18.30
2015,07,05,05,15,18.30
2015,07,05,05,16,18.30
2015,07,05,05,17,18.30
2015,07,05,05,18,18.30
2015,07,05,05,19,18.30
2015,07,05,05,20,18.30
2015,07,05,05,21,18.30
2015,07,05,05,22,18.30
2015,07,05,05,23,18.20
2015,07,05,05,24,18.20
2015,07,05,05,25,18.20
2015,07,05,05,26,18.20
2015,07,05,05,27,18.10
2015,07,05,05,28,18.10
2015,07,05,05,29,18.10
2015,07,05,05,30,18.00
2015,07,05,05,31,18.00
2015,07,05,05,32,18.00
2015,07,05,05,33,18.00
2015,07,05,05,34,18.00
2015,07,05,05,35,18.00
2015,07,05,05,36,18.00
2015,07,05,05,37,18.00
2015,07,05,05,38,18.00
2015,07,05,05,39,18.00
2015,07,05,05,40,18.00
2015,07,05,05,41,18.10
2015,07,05,05,42,18.00
2015,07,05,05,43,18.10
2015,07,05,05,44,18.10
2015,07,05,05,45,18.10
2015,07,05,05,46,18.10
2015,07,05,05,47,18.10
2015,07,05,05,48,18.10
2015,07,05,05,49,18.00
2015,07,05,05,50,18.00
2015,07,05,05,51,18.00
2015,07,05,05,52,18.00
2015,07,05,05,53,18.00
2015,07,05,05,54,18.00
2015,07,05,05,55,18.00
2015,07,05,05,56,18.00
2015,07,05,05,57,18.00
2015,07,05,05,58,18.00
2015,07,05,05,59,18.00
2015,07,05,06,00,17.90
2015,07,05,06,01,17.90
2015,07,05,06,02,17.90
2015,07,05,06,03,18.00
2015,07,05,06,04,18.00
2015,07,05,06,05,18.00
2015,07,05,06,06,18.00
2015,07,05,06,07,18.00
2015,07,05,06,08,18.00
2015,07,05,06,09,18.00
2015,07,05,06,10,18.00
2015,07,05,06,11,18.00
2015,07,05,06,12,18.00
2015,07,05,06,13,18.00
2015,07,05,06,14,18.00
2015,07,05,06,15,17.90
2015,07,05,06,16,17.90
2015,07,05,06,17,17.90
2015,07,05,06,18,17.80
2015,07,05,06,19,17.80
2015,07,05,06,20,17.80
2015,07,05,06,21,17.80
2015,07,05,06,22,17.70
2015,07,05,06,23,17.70
2015,07,05,06,24,17.70
2015,07,05,06,25,17.70
2015,07,05,06,26,17.70
2015,07,05,06,27,17.70
2015,07,05,06,28,17.70
2015,07,05,06,29,17.70
2015,07,05,06,30,17.70
2015,07,05,06,31,17.70
2015,07,05,06,32,17.70
2015,07,05,06,33,17.70
2015,07,05,06,34,17.70
2015,07,05,06,35,17.70
2015,07,05,06,36,17.80
2015,07,05,06,37,17.80
2015,07,05,06,38,17.80
2015,07,05,06,39,17.80
2015,07,05,06,40,17.80
2015,07,05,06,41,17.80
2015,07,05,06,42,17.80
2015,07,05,06,43,17.80
2015,07,05,06,44,17.80
2015,07,05,06,45,17.80
2015,07,05,06,46,17.80
2015,07,05,06,47,17.80
2015,07,05,06,48,17.80
2015,07,05,06,49,17.80
2015,07,05,06,50,17.80
2015,07,05,06,51,17.80
2015,07,05,06,52,17.70
2015,07,05,06,53,17.80
2015,07,05,06,54,17.80
2015,07,05,06,55,17.80
2015,07,05,06,56,17.80
2015,07,05,06,57,17.90
2015,07,05,06,58,17.90
2015,07,05,06,59,17.90
2015,07,05,07,00,17.90
2015,07,05,07,01,17.90
2015,07,05,07,02,17.90
2015,07,05,07,03,18.00
2015,07,05,07,04,18.00
2015,07,05,07,05,18.10
2015,07,05,07,06,18.10
2015,07,05,07,07,18.20
2015,07,05,07,08,18.20
2015,07,05,07,09,18.20
2015,07,05,07,10,18.20
2015,07,05,07,11,18.20
2015,07,05,07,12,18.20
2015,07,05,07,13,18.30
2015,07,05,07,14,18.30
2015,07,05,07,15,18.30
2015,07,05,07,16,18.30
2015,07,05,07,17,18.30
2015,07,05,07,18,18.30
2015,07,05,07,19,18.30
2015,07,05,07,20,18.30
2015,07,05,07,21,18.40
2015,07,05,07,22,18.40
2015,07,05,07,23,18.40
2015,07,05,07,24,18.40
2015,07,05,07,25,18.50
2015,07,05,07,26,18.50
2015,07,05,07,27,18.50
2015,07,05,07,28,18.50
2015,07,05,07,29,18.50
2015,07,05,07,30,18.60
2015,07,05,07,31,18.60
2015,07,05,07,32,18.70
2015,07,05,07,33,18.70
2015,07,05,07,34,18.70
2015,07,05,07,35,18.80
2015,07,05,07,36,18.80
2015,07,05,07,37,18.80
2015,07,05,07,38,18.90
2015,07,05,07,39,18.90
2015,07,05,07,40,18.90
2015,07,05,07,41,19.00
2015,07,05,07,42,19.10
2015,07,05,07,43,19.10
2015,07,05,07,44,19.20
2015,07,05,07,45,19.20
2015,07,05,07,46,19.20
2015,07,05,07,47,19.20
2015,07,05,07,48,19.30
2015,07,05,07,49,19.40
2015,07,05,07,50,19.40
2015,07,05,07,51,19.50
2015,07,05,07,52,19.50
2015,07,05,07,53,19.60
2015,07,05,07,54,19.60
2015,07,05,07,55,19.60
2015,07,05,07,56,19.60
2015,07,05,07,57,19.70
2015,07,05,07,58,19.70
2015,07,05,07,59,19.70
2015,07,05,08,00,19.80
2015,07,05,08,01,19.80
2015,07,05,08,02,19.90
2015,07,05,08,03,20.00
2015,07,05,08,04,20.00
2015,07,05,08,05,20.00
2015,07,05,08,06,20.00
2015,07,05,08,07,20.10
2015,07,05,08,08,20.20
2015,07,05,08,09,20.20
2015,07,05,08,10,20.30
2015,07,05,08,11,20.30
2015,07,05,08,12,20.30
2015,07,05,08,13,20.40
2015,07,05,08,14,20.40
2015,07,05,08,15,20.40
2015,07,05,08,16,20.60
2015,07,05,08,17,20.60
2015,07,05,08,18,20.70
2015,07,05,08,19,20.70
2015,07,05,08,20,20.70
2015,07,05,08,21,20.80
2015,07,05,08,22,20.80
2015,07,05,08,23,20.90
2015,07,05,08,24,20.90
2015,07,05,08,25,20.90
2015,07,05,08,26,20.90
2015,07,05,08,27,21.00
2015,07,05,08,28,21.00
2015,07,05,08,29,21.10
2015,07,05,08,30,21.10
2015,07,05,08,31,21.20
2015,07,05,08,32,21.20
2015,07,05,08,33,21.20
2015,07,05,08,34,21.20
2015,07,05,08,35,21.30
2015,07,05,08,36,21.40
2015,07,05,08,37,21.40
2015,07,05,08,38,21.50
2015,07,05,08,39,21.50
2015,07,05,08,40,21.60
2015,07,05,08,41,21.60
2015,07,05,08,42,21.70
2015,07,05,08,43,21.70
2015,07,05,08,44,21.80
2015,07,05,08,45,21.90
2015,07,05,08,46,21.90
2015,07,05,08,47,22.00
2015,07,05,08,48,22.00
2015,07,05,08,49,22.10
2015,07,05,08,50,22.10
2015,07,05,08,51,22.10
2015,07,05,08,52,22.10
2015,07,05,08,53,22.20
2015,07,05,08,54,22.20
2015,07,05,08,55,22.30
2015,07,05,08,56,22.30
2015,07,05,08,57,22.30
2015,07,05,08,58,22.40
2015,07,05,08,59,22.40
2015,07,05,09,00,22.50
2015,07,05,09,01,22.50
2015,07,05,09,02,22.50
2015,07,05,09,03,22.60
2015,07,05,09,04,22.70
2015,07,05,09,05,22.70
2015,07,05,09,06,22.70
2015,07,05,09,07,22.70
2015,07,05,09,08,22.80
2015,07,05,09,09,22.80
2015,07,05,09,10,22.90
2015,07,05,09,11,22.90
2015,07,05,09,12,22.90
2015,07,05,09,13,23.00
2015,07,05,09,14,23.00
2015,07,05,09,15,23.00
2015,07,05,09,16,23.10
2015,07,05,09,17,23.10
2015,07,05,09,18,23.10
2015,07,05,09,19,23.20
2015,07,05,09,20,23.20
2015,07,05,09,21,23.20
2015,07,05,09,22,23.30
2015,07,05,09,23,23.30
2015,07,05,09,24,23.30
2015,07,05,09,25,23.30
2015,07,05,09,26,23.30
2015,07,05,09,27,23.30
2015,07,05,09,28,23.30
2015,07,05,09,29,23.30
2015,07,05,09,30,23.40
2015,07,05,09,31,23.40
2015,07,05,09,32,23.40
2015,07,05,09,33,23.40
2015,07,05,09,34,23.40
2015,07,05,09,35,23.40
2015,07,05,09,36,23.50
2015,07,05,09,37,23.60
2015,07,05,09,38,23.60
2015,07,05,09,39,23.60
2015,07,05,09,40,23.60
2015,07,05,09,41,23.70
2015,07,05,09,42,23.70
2015,07,05,09,43,23.70
2015,07,05,09,44,23.70
2015,07,05,09,45,23.70
2015,07,05,09,46,23.70
2015,07,05,09,47,23.80
2015,07,05,09,48,23.80
2015,07,05,09,49,23.80
2015,07,05,09,50,23.90
2015,07,05,09,51,23.90
2015,07,05,09,52,24.00
2015,07,05,09,53,24.10
2015,07,05,09,54,24.10
2015,07,05,09,55,24.20
2015,07,05,09,56,24.20
2015,07,05,09,57,24.20
2015,07,05,09,58,24.20
2015,07,05,09,59,24.30
2015,07,05,10,00,24.30
2015,07,05,10,01,24.40
2015,07,05,10,02,24.40
2015,07,05,10,03,24.40
2015,07,05,10,04,24.30
2015,07,05,10,05,24.30
2015,07,05,10,06,24.30
2015,07,05,10,07,24.30
2015,07,05,10,08,24.30
2015,07,05,10,09,24.30
2015,07,05,10,10,24.30
2015,07,05,10,11,24.20
2015,07,05,10,12,24.30
2015,07,05,10,13,24.30
2015,07,05,10,14,24.30
2015,07,05,10,15,24.30
2015,07,05,10,16,24.30
2015,07,05,10,17,24.30
2015,07,05,10,18,24.40
2015,07,05,10,19,24.40
2015,07,05,10,20,24.40
2015,07,05,10,21,24.40
2015,07,05,10,22,24.50
2015,07,05,10,23,24.50
2015,07,05,10,24,24.60
2015,07,05,10,25,24.60
2015,07,05,10,26,24.60
2015,07,05,10,27,24.80
2015,07,05,10,28,24.80
2015,07,05,10,29,24.90
2015,07,05,10,30,24.90
2015,07,05,10,31,24.90
2015,07,05,10,32,24.90
2015,07,05,10,33,24.90
2015,07,05,10,34,24.90
2015,07,05,10,35,24.90
2015,07,05,10,36,24.90
2015,07,05,10,37,25.00
2015,07,05,10,38,25.00
2015,07,05,10,39,25.10
2015,07,05,10,40,25.10
2015,07,05,10,41,25.20
2015,07,05,10,42,25.20
2015,07,05,10,43,25.30
2015,07,05,10,44,25.30
2015,07,05,10,45,25.30
2015,07,05,10,46,25.30
2015,07,05,10,47,25.30
2015,07,05,10,48,25.40
2015,07,05,10,49,25.40
2015,07,05,10,50,25.40
2015,07,05,10,51,25.60
2015,07,05,10,52,25.70
2015,07,05,10,53,25.80
2015,07,05,10,54,25.80
2015,07,05,10,55,25.90
2015,07,05,10,56,26.00
2015,07,05,10,57,26.10
2015,07,05,10,58,26.20
2015,07,05,10,59,26.20
2015,07,05,11,00,26.30
2015,07,05,11,01,26.40
2015,07,05,11,02,26.40
2015,07,05,11,03,26.40
2015,07,05,11,04,26.60
2015,07,05,11,05,26.70
2015,07,05,11,06,26.70
2015,07,05,11,07,26.80
2015,07,05,11,08,26.80
2015,07,05,11,09,26.90
2015,07,05,11,10,26.90
2015,07,05,11,11,27.00
2015,07,05,11,12,27.10
2015,07,05,11,13,27.10
2015,07,05,11,14,27.20
2015,07,05,11,15,27.30
2015,07,05,11,16,27.40
2015,07,05,11,17,27.50
2015,07,05,11,18,27.60
2015,07,05,11,19,27.70
2015,07,05,11,20,27.80
2015,07,05,11,21,27.80
2015,07,05,11,22,27.80
2015,07,05,11,23,28.00
2015,07,05,11,24,28.10
2015,07,05,11,25,28.20
2015,07,05,11,26,28.30
2015,07,05,11,27,28.30
2015,07,05,11,28,28.50
2015,07,05,11,29,28.50
2015,07,05,11,30,28.60
2015,07,05,11,31,28.60
2015,07,05,11,32,28.60
2015,07,05,11,33,28.60
2015,07,05,11,34,28.60
2015,07,05,11,35,28.60
2015,07,05,11,36,28.60
2015,07,05,11,37,28.50
2015,07,05,11,38,28.50
2015,07,05,11,39,28.50
2015,07,05,11,40,28.60
2015,07,05,11,41,28.60
2015,07,05,11,42,28.60
2015,07,05,11,43,28.70
2015,07,05,11,44,28.70
2015,07,05,11,45,28.70
2015,07,05,11,46,28.70
2015,07,05,11,47,28.70
2015,07,05,11,48,28.70
2015,07,05,11,49,28.80
2015,07,05,11,50,28.80
2015,07,05,11,51,28.80
2015,07,05,11,52,28.80
2015,07,05,11,53,28.90
2015,07,05,11,54,28.90
2015,07,05,11,55,28.90
2015,07,05,11,56,29.00
2015,07,05,11,57,29.00
2015,07,05,11,58,29.00
2015,07,05,11,59,29.10
2015,07,05,12,00,29.10
2015,07,05,12,01,29.20
2015,07,05,12,02,29.30
2015,07,05,12,03,29.30
2015,07,05,12,04,29.40
2015,07,05,12,05,29.40
2015,07,05,12,06,29.50
2015,07,05,12,07,29.50
2015,07,05,12,08,29.60
2015,07,05,12,09,29.50
2015,07,05,12,10,29.50
2015,07,05,12,11,29.50
2015,07,05,12,12,29.50
2015,07,05,12,13,29.50
2015,07,05,12,14,29.50
2015,07,05,12,15,29.50
2015,07,05,12,16,29.50
2015,07,05,12,17,29.50
2015,07,05,12,18,29.60
2015,07,05,12,19,29.60
2015,07,05,12,20,29.50
2015,07,05,12,21,29.50
2015,07,05,12,22,29.60
2015,07,05,12,23,29.60
2015,07,05,12,24,29.60
2015,07,05,12,25,29.70
2015,07,05,12,26,29.80
2015,07,05,12,27,29.80
2015,07,05,12,28,29.90
2015,07,05,12,29,29.90
2015,07,05,12,30,29.90
2015,07,05,12,31,30.00
2015,07,05,12,32,30.10
2015,07,05,12,33,30.10
2015,07,05,12,34,30.20
2015,07,05,12,35,30.20
2015,07,05,12,36,30.20
2015,07,05,12,37,30.20
2015,07,05,12,38,30.20
2015,07,05,12,39,30.20
2015,07,05,12,40,30.30
2015,07,05,12,41,30.30
2015,07,05,12,42,30.30
2015,07,05,12,43,30.30
2015,07,05,12,44,30.20
2015,07,05,12,45,30.00
2015,07,05,12,46,30.00
2015,07,05,12,47,29.90
2015,07,05,12,48,29.80
2015,07,05,12,49,29.80
2015,07,05,12,50,29.80
2015,07,05,12,51,29.80
2015,07,05,12,52,29.80
2015,07,05,12,53,29.90
2015,07,05,12,54,29.90
2015,07,05,12,55,30.00
2015,07,05,12,56,30.00
2015,07,05,12,57,29.90
2015,07,05,12,58,29.90
2015,07,05,12,59,29.80
2015,07,05,13,00,29.80
2015,07,05,13,01,29.90
2015,07,05,13,02,30.00
2015,07,05,13,03,30.10
2015,07,05,13,04,30.20
2015,07,05,13,05,30.20
2015,07,05,13,06,30.30
2015,07,05,13,07,30.40
2015,07,05,13,08,30.40
2015,07,05,13,09,30.40
2015,07,05,13,10,30.50
2015,07,05,13,11,30.60
2015,07,05,13,12,30.60
2015,07,05,13,13,30.60
2015,07,05,13,14,30.60
2015,07,05,13,15,30.50
2015,07,05,13,16,30.50
2015,07,05,13,17,30.50
2015,07,05,13,18,30.50
2015,07,05,13,19,30.50
2015,07,05,13,20,30.40
2015,07,05,13,21,30.40
2015,07,05,13,22,30.30
2015,07,05,13,23,30.30
2015,07,05,13,24,30.30
2015,07,05,13,25,30.20
2015,07,05,13,26,30.20
2015,07,05,13,27,30.20
2015,07,05,13,28,30.20
2015,07,05,13,29,30.20
2015,07,05,13,30,30.30
2015,07,05,13,31,30.30
2015,07,05,13,32,30.20
2015,07,05,13,33,30.20
2015,07,05,13,34,30.20
2015,07,05,13,35,30.20
2015,07,05,13,36,30.30
2015,07,05,13,37,30.40
2015,07,05,13,38,30.40
2015,07,05,13,39,30.60
2015,07,05,13,40,30.60
2015,07,05,13,41,30.60
2015,07,05,13,42,30.60
2015,07,05,13,43,30.60
2015,07,05,13,44,30.50
2015,07,05,13,45,30.50
2015,07,05,13,46,30.40
2015,07,05,13,47,30.40
2015,07,05,13,48,30.50
2015,07,05,13,49,30.60
2015,07,05,13,50,30.70
2015,07,05,13,51,30.80
2015,07,05,13,52,30.80
2015,07,05,13,53,30.90
2015,07,05,13,54,31.00
2015,07,05,13,55,31.10
2015,07,05,13,56,31.20
2015,07,05,13,57,31.30
2015,07,05,13,58,31.30
2015,07,05,13,59,31.30
2015,07,05,14,00,31.40
2015,07,05,14,01,31.40
2015,07,05,14,02,31.40
2015,07,05,14,03,31.50
2015,07,05,14,04,31.50
2015,07,05,14,05,31.50
2015,07,05,14,06,31.50
2015,07,05,14,07,31.60
2015,07,05,14,08,31.70
2015,07,05,14,09,31.70
2015,07,05,14,10,31.70
2015,07,05,14,11,31.70
2015,07,05,14,12,31.70
2015,07,05,14,13,31.70
2015,07,05,14,14,31.70
2015,07,05,14,15,31.70
2015,07,05,14,16,31.60
2015,07,05,14,17,31.60
2015,07,05,14,18,31.60
2015,07,05,14,19,31.60
2015,07,05,14,20,31.60
2015,07,05,14,21,31.70
2015,07,05,14,22,31.70
2015,07,05,14,23,31.70
2015,07,05,14,24,31.70
2015,07,05,14,25,31.70
2015,07,05,14,26,31.60
2015,07,05,14,27,31.60
2015,07,05,14,28,31.50
2015,07,05,14,29,31.40
2015,07,05,14,30,31.30
2015,07,05,14,31,31.30
2015,07,05,14,32,31.20
2015,07,05,14,33,31.20
2015,07,05,14,34,31.10
2015,07,05,14,35,31.10
2015,07,05,14,36,31.00
2015,07,05,14,37,31.00
2015,07,05,14,38,30.80
2015,07,05,14,39,30.50
2015,07,05,14,40,30.30
2015,07,05,14,41,30.10
2015,07,05,14,42,30.00
2015,07,05,14,43,29.80
2015,07,05,14,44,29.60
2015,07,05,14,45,29.40
2015,07,05,14,46,29.30
2015,07,05,14,47,29.30
2015,07,05,14,48,29.20
2015,07,05,14,49,29.10
2015,07,05,14,50,29.10
2015,07,05,14,51,29.10
2015,07,05,14,52,29.20
2015,07,05,14,53,29.20
2015,07,05,14,54,29.20
2015,07,05,14,55,29.20
2015,07,05,14,56,29.10
2015,07,05,14,57,29.10
2015,07,05,14,58,29.10
2015,07,05,14,59,29.10
2015,07,05,15,00,29.00
2015,07,05,15,01,29.10
2015,07,05,15,02,29.10
2015,07,05,15,03,29.20
2015,07,05,15,04,29.20
2015,07,05,15,05,29.20
2015,07,05,15,06,29.20
2015,07,05,15,07,29.20
2015,07,05,15,08,29.40
2015,07,05,15,09,29.50
2015,07,05,15,10,29.50
2015,07,05,15,11,29.70
2015,07,05,15,12,29.70
2015,07,05,15,13,29.70
2015,07,05,15,14,29.80
2015,07,05,15,15,29.80
2015,07,05,15,16,29.80
2015,07,05,15,17,29.80
2015,07,05,15,18,30.00
2015,07,05,15,19,30.00
2015,07,05,15,20,30.10
2015,07,05,15,21,30.20
2015,07,05,15,22,30.20
2015,07,05,15,23,30.30
2015,07,05,15,24,30.40
2015,07,05,15,25,30.50
2015,07,05,15,26,30.60
2015,07,05,15,27,30.70
2015,07,05,15,28,30.70
2015,07,05,15,29,30.80
2015,07,05,15,30,30.70
2015,07,05,15,31,30.60
2015,07,05,15,32,30.60
2015,07,05,15,33,30.60
2015,07,05,15,34,30.50
2015,07,05,15,35,30.50
2015,07,05,15,36,30.50
2015,07,05,15,37,30.50
2015,07,05,15,38,30.50
2015,07,05,15,39,30.60
2015,07,05,15,40,30.50
2015,07,05,15,41,30.40
2015,07,05,15,42,30.50
2015,07,05,15,43,30.60
2015,07,05,15,44,30.60
2015,07,05,15,45,30.70
2015,07,05,15,46,30.80
2015,07,05,15,47,30.80
2015,07,05,15,48,30.70
2015,07,05,15,49,30.70
2015,07,05,15,50,30.70
2015,07,05,15,51,30.70
2015,07,05,15,52,30.60
2015,07,05,15,53,30.60
2015,07,05,15,54,30.50
2015,07,05,15,55,30.40
2015,07,05,15,56,30.40
2015,07,05,15,57,30.40
2015,07,05,15,58,30.40
2015,07,05,15,59,30.40
2015,07,05,16,00,30.50
2015,07,05,16,01,30.50
2015,07,05,16,02,30.60
2015,07,05,16,03,30.50
2015,07,05,16,04,30.50
2015,07,05,16,05,30.50
2015,07,05,16,06,30.60
2015,07,05,16,07,30.60
2015,07,05,16,08,30.50
2015,07,05,16,09,30.50
2015,07,05,16,10,30.40
2015,07,05,16,11,30.50
2015,07,05,16,12,30.60
2015,07,05,16,13,30.60
2015,07,05,16,14,30.60
2015,07,05,16,15,30.60
2015,07,05,16,16,30.40
2015,07,05,16,17,30.40
2015,07,05,16,18,30.40
2015,07,05,16,19,30.30
2015,07,05,16,20,30.30
2015,07,05,16,21,30.30
2015,07,05,16,22,30.30
2015,07,05,16,23,30.20
2015,07,05,16,24,30.20
2015,07,05,16,25,30.20
2015,07,05,16,26,30.10
2015,07,05,16,27,30.00
2015,07,05,16,28,30.00
2015,07,05,16,29,30.00
2015,07,05,16,30,29.90
2015,07,05,16,31,29.90
2015,07,05,16,32,29.90
2015,07,05,16,33,29.80
2015,07,05,16,34,29.80
2015,07,05,16,35,29.70
2015,07,05,16,36,29.70
2015,07,05,16,37,29.60
2015,07,05,16,38,29.60
2015,07,05,16,39,29.60
2015,07,05,16,40,29.60
2015,07,05,16,41,29.60
2015,07,05,16,42,29.60
2015,07,05,16,43,29.60
2015,07,05,16,44,29.50
2015,07,05,16,45,29.50
2015,07,05,16,46,29.60
2015,07,05,16,47,29.60
2015,07,05,16,48,29.60
2015,07,05,16,49,29.60
2015,07,05,16,50,29.60
2015,07,05,16,51,29.60
2015,07,05,16,52,29.60
2015,07,05,16,53,29.60
2015,07,05,16,54,29.60
2015,07,05,16,55,29.60
2015,07,05,16,56,29.60
2015,07,05,16,57,29.60
2015,07,05,16,58,29.60
2015,07,05,16,59,29.60
2015,07,05,17,00,29.50
2015,07,05,17,01,29.50
2015,07,05,17,02,29.50
2015,07,05,17,03,29.60
2015,07,05,17,04,29.60
2015,07,05,17,05,29.80
2015,07,05,17,06,29.80
2015,07,05,17,07,29.80
2015,07,05,17,08,29.80
2015,07,05,17,09,29.80
2015,07,05,17,10,29.80
2015,07,05,17,11,29.80
2015,07,05,17,12,29.80
2015,07,05,17,13,29.80
2015,07,05,17,14,29.60
2015,07,05,17,15,29.60
2015,07,05,17,16,29.50
2015,07,05,17,17,29.40
2015,07,05,17,18,29.20
2015,07,05,17,19,29.10
2015,07,05,17,20,28.90
2015,07,05,17,21,28.90
2015,07,05,17,22,28.80
2015,07,05,17,23,28.80
2015,07,05,17,24,28.80
2015,07,05,17,25,28.70
2015,07,05,17,26,28.80
2015,07,05,17,27,28.80
2015,07,05,17,28,28.80
2015,07,05,17,29,28.80
2015,07,05,17,30,28.80
2015,07,05,17,31,28.80
2015,07,05,17,32,28.80
2015,07,05,17,33,28.80
2015,07,05,17,34,28.80
2015,07,05,17,35,28.80
2015,07,05,17,36,28.80
2015,07,05,17,37,28.90
2015,07,05,17,38,28.90
2015,07,05,17,39,28.90
2015,07,05,17,40,28.90
2015,07,05,17,41,28.90
2015,07,05,17,42,28.80
2015,07,05,17,43,28.80
2015,07,05,17,44,28.80
2015,07,05,17,45,28.80
2015,07,05,17,46,28.90
2015,07,05,17,47,28.90
2015,07,05,17,48,28.80
2015,07,05,17,49,28.70
2015,07,05,17,50,28.70
2015,07,05,17,51,28.50
2015,07,05,17,52,28.40
2015,07,05,17,53,28.30
2015,07,05,17,54,28.30
2015,07,05,17,55,28.20
2015,07,05,17,56,28.10
2015,07,05,17,57,28.10
2015,07,05,17,58,28.10
2015,07,05,17,59,28.10
2015,07,05,18,00,28.10
2015,07,05,18,01,28.10
2015,07,05,18,02,28.10
2015,07,05,18,03,28.10
2015,07,05,18,04,28.00
2015,07,05,18,05,28.00
2015,07,05,18,06,27.90
2015,07,05,18,07,27.90
2015,07,05,18,08,27.90
2015,07,05,18,09,27.80
2015,07,05,18,10,27.80
2015,07,05,18,11,27.80
2015,07,05,18,12,27.80
2015,07,05,18,13,27.80
2015,07,05,18,14,27.80
2015,07,05,18,15,27.80
2015,07,05,18,16,27.80
2015,07,05,18,17,27.80
2015,07,05,18,18,27.80
2015,07,05,18,19,27.80
2015,07,05,18,20,27.80
2015,07,05,18,21,27.80
2015,07,05,18,22,27.80
2015,07,05,18,23,27.80
2015,07,05,18,24,27.80
2015,07,05,18,25,27.90
2015,07,05,18,26,27.90
2015,07,05,18,27,28.00
2015,07,05,18,28,28.00
2015,07,05,18,29,28.10
2015,07,05,18,30,28.10
2015,07,05,18,31,28.10
2015,07,05,18,32,28.10
2015,07,05,18,33,28.10
2015,07,05,18,34,28.10
2015,07,05,18,35,28.10
2015,07,05,18,36,28.20
2015,07,05,18,37,28.20
2015,07,05,18,38,28.30
2015,07,05,18,39,28.40
2015,07,05,18,40,28.40
2015,07,05,18,41,28.50
2015,07,05,18,42,28.50
2015,07,05,18,43,28.50
2015,07,05,18,44,28.50
2015,07,05,18,45,28.50
2015,07,05,18,46,28.50
2015,07,05,18,47,28.40
2015,07,05,18,48,28.40
2015,07,05,18,49,28.30
2015,07,05,18,50,28.30
2015,07,05,18,51,28.30
2015,07,05,18,52,28.30
2015,07,05,18,53,28.30
2015,07,05,18,54,28.30
2015,07,05,18,55,28.30
2015,07,05,18,56,28.30
2015,07,05,18,57,28.40
2015,07,05,18,58,28.40
2015,07,05,18,59,28.40
2015,07,05,19,00,28.40
2015,07,05,19,01,28.30
2015,07,05,19,02,28.30
2015,07,05,19,03,28.30
2015,07,05,19,04,28.30
2015,07,05,19,05,28.30
2015,07,05,19,06,28.30
2015,07,05,19,07,28.30
2015,07,05,19,08,28.30
2015,07,05,19,09,28.40
2015,07,05,19,10,28.40
2015,07,05,19,11,28.40
2015,07,05,19,12,28.40
2015,07,05,19,13,28.40
2015,07,05,19,14,28.40
2015,07,05,19,15,28.50
2015,07,05,19,16,28.50
2015,07,05,19,17,28.60
2015,07,05,19,18,28.60
2015,07,05,19,19,28.60
2015,07,05,19,20,28.70
2015,07,05,19,21,28.70
2015,07,05,19,22,28.80
2015,07,05,19,23,28.80
2015,07,05,19,24,28.80
2015,07,05,19,25,28.90
2015,07,05,19,26,28.80
2015,07,05,19,27,28.80
2015,07,05,19,28,28.80
2015,07,05,19,29,28.80
2015,07,05,19,30,28.80
2015,07,05,19,31,28.80
2015,07,05,19,32,28.80
2015,07,05,19,33,28.80
2015,07,05,19,34,28.80
2015,07,05,19,35,28.80
2015,07,05,19,36,28.80
2015,07,05,19,37,28.80
2015,07,05,19,38,28.70
2015,07,05,19,39,28.70
2015,07,05,19,40,28.70
2015,07,05,19,41,28.70
2015,07,05,19,42,28.70
2015,07,05,19,43,28.60
2015,07,05,19,44,28.60
2015,07,05,19,45,28.50
2015,07,05,19,46,28.40
2015,07,05,19,47,28.30
2015,07,05,19,48,28.20
2015,07,05,19,49,28.10
2015,07,05,19,50,28.10
2015,07,05,19,51,27.90
2015,07,05,19,52,27.90
2015,07,05,19,53,27.80
2015,07,05,19,54,27.80
2015,07,05,19,55,27.80
2015,07,05,19,56,27.80
2015,07,05,19,57,27.80
2015,07,05,19,58,27.70
2015,07,05,19,59,27.70
2015,07,05,20,00,27.80
2015,07,05,20,01,27.80
2015,07,05,20,02,27.70
2015,07,05,20,03,27.70
2015,07,05,20,04,27.70
2015,07,05,20,05,27.70
2015,07,05,20,06,27.70
2015,07,05,20,07,27.60
2015,07,05,20,08,27.60
2015,07,05,20,09,27.50
2015,07,05,20,10,27.50
2015,07,05,20,11,27.40
2015,07,05,20,12,27.30
2015,07,05,20,13,27.20
2015,07,05,20,14,27.20
2015,07,05,20,15,27.10
2015,07,05,20,16,26.90
2015,07,05,20,17,26.90
2015,07,05,20,18,26.90
2015,07,05,20,19,26.70
2015,07,05,20,20,26.70
2015,07,05,20,21,26.70
2015,07,05,20,22,26.60
2015,07,05,20,23,26.60
2015,07,05,20,24,26.60
2015,07,05,20,25,26.50
2015,07,05,20,26,26.40
2015,07,05,20,27,26.40
2015,07,05,20,28,26.30
2015,07,05,20,29,26.30
2015,07,05,20,30,26.20
2015,07,05,20,31,26.20
2015,07,05,20,32,26.20
2015,07,05,20,33,26.10
2015,07,05,20,34,26.10
2015,07,05,20,35,26.00
2015,07,05,20,36,26.00
2015,07,05,20,37,25.90
2015,07,05,20,38,25.90
2015,07,05,20,39,25.90
2015,07,05,20,40,25.80
2015,07,05,20,41,25.80
2015,07,05,20,42,25.70
2015,07,05,20,43,25.70
2015,07,05,20,44,25.70
2015,07,05,20,45,25.60
2015,07,05,20,46,25.60
2015,07,05,20,47,25.50